ES'HAIL 2 (43700 NORAD) Tracking and Keplerian Element Data

This shows tracking and keplerian element data for the satellite.

Feedback or suggestion? Click here.




ElementValue
Catalog43700
NameES'HAIL 2
Epoch Orbit695
Epoch Day293.88783993
Epoch Year2020
RAAN262.5511
Inclination0.0167
Eccentricity0.0001713
Argument of Perigee319.0667
Mean Anonmoly152.6447
Mean Motion1.00272031
Decay Rate1.34E-06
L11 43700U 18090A 20293.88783993 .00000134 00000-0 00000-0 0 9991
L22 43700 0.0167 262.5511 0001713 319.0667 152.6447 1.00272031 6951

Live tracking and technical data element details for ES'HAIL 2 (NORAD 43700). ES'HAIL 2 can be tracked NOW for your location showing map with azimuth and elevation plus other details from your city location.

Track the satellite on the map from your city or location and see movement details for azimuth, elevation, latitude, longitude, range, height, and movement on the map or in text.







IsCatalogInMostPopularTable: catalog: 43700, numindb: 7621
Update: records affected: 1



GetName: 43700 ES'HAIL 2

Hit Count: updated at: Tue, 20 Oct 2020 16:45:00 GMT